Location: Vihti�l�
(61.3833°N, 23.0667°E)
Time: 05:09:24
(UTC+00:00)

Cosmos 2251 Rocket - Pass Details

Date: 29 November 2020
Orbit: 765 x 792 km, 74.0° (Epoch: 22 January)

Event Time Altitude Azimuth Distance (km) Brightness Sun altitude
Exits shadow 04:52:29 13° 331° (NNW) 2,125 5.4 -14.6°
Maximum altitude 04:56:57 43° 40° (NE) 1,078 4.4 -14.1°
Drops below altitude 10° 05:01:56 10° 112° (ESE) 2,309 7.5 -13.5°
Sets 05:04:26 0° 119° (ESE) 3,234 8.7 -13.3°
